一网星座-0192星 (ONEWEB-0192 )

导读 | 豆包AI

ONEWEB-0192是英国OneWeb星座的低轨互联网卫星,于2021年4月25日发射入轨,归属重组后英国政府持股的OneWeb公司。作为OneWeb一期组网卫星,单星重约147.5kg,设计寿命5年,搭载Ku/Ka波段天线,具备约7.5Gbps通信容量,运行在1200公里近地轨道,为全球提供低延迟宽频互联网接入,是OneWeb实现全球覆盖星座组网的重要组成部分。卫星寿命末期将主动离轨,符合空间碎片减缓要求。

Basic Information
目录编号:
48222
目录名称:
ONEWEB-0192
国际标识:
2021-031N
轨道中心:
EARTH
卫星名称:
一网星座-0192星
卫星全名:
一网星座-0192星 (ONEWEB-0192 )
卫星状态:
在轨 (已飞行1784 天)
发射日期:
2021-04-25 UTC
国别 :
英国 (GB)
星等 :
--
Orbit Information
数据来源 国际轨道数据 AOE轨道数据
星历时间 2026-03-14T06:40:08+0800
13小时前
查看轨道信息
2026-03-11T10:00:00+0800
3天前
查看轨道信息
半长轴 7583.929km 7583.944km
偏心率 0.0001706 0.0001691
轨道倾角 87.897° 87.898°
近地点辐角 82.479° 53.828°
升交点赤经 308.720° 309.292°
平近点角 277.654° 94.185°
近地点 1204.498km 1204.524km
远地点 1207.086km 1207.09km
周期 109.547分钟 109.547分钟
每日圈数 13.145026 13.144986
Detailed Information
平衡模式:
三轴稳定
覆盖范围:
全球
运营商:
一网卫星公司
运营商所在国:
英国
制造商(研发单位):
一网卫星公司
制造商所在国:
英国
使用方式:
暂无
Satellite Introduction
OneWeb卫星网络由648颗重约125公斤的微型卫星组成,运行在1200公里的轨道上。 每颗卫星都能够提供至少每秒8千兆位的吞吐量,以使用其高吞吐量的Ku频段有效载荷为家庭和移动平台提供互联网接入。该卫星仍在工作。
2D Orbit Map
3D Orbit Map
Orbit Altitude Analysis Chart
Orbit Inclination Analysis Chart
Orbit Comprehensive Analysis Chart
View Comprehensive Chart